Reflectivity
-20 -17 -17 2 -20 -20 -20 -20 -20 -20 -20 -20 -20 -20 -20 -20 -20 -20 -20 -20 -20 -20 -20 -20 -20 -20 -20 -20 -20 -20 -20 -20 -20 -20 -20 -20 -20 -20 -20 -20 -20 -20 -20 -20 -20
-20 -20 -20 -20 -20 -20 -20 -20 -20 -20 -20 -20 -20 -20 -20 -19 -20 -20 -20 -20 -20 -20 -20 -20 -20 -20 -20 -20 -20 -20 -20 -20 -20 -20 -20 -20 -20 -20 -20 -20 -20 -20 -20 -20 -20
-20 -20 -20 -20 -20 -20 -20 -20 -20 -20 -20 -20 -20 -20 -20 -20 -20 -20 -20 -20 -20 -20 -20 -20 -20 -20 -20 -20 -20 -20 -20 -20 -20 -20 -20 -20 -20 -20 -20 -20 -20 -20 -20 -20 -20
4 -19 -20 -20 -20 -20 -20 -20 -20 -20 -20 -20 -20 -20 -20 -20 -20 -20 -20 -20 -20 -20 -20 -20 -20 -20 -20 -20 -20 -20 -20 -20 -20 -20 -20 -20 -20 -20 -20 -20 -20 -20 -20 -20 -20
7 2 -20 -20 -20 -20 -20 -20 -20 -20 -20 -20 -20 -20 -20 -20 -20 -20 -20 -20 -20 -20 -20 -20 -20 -20 -20 -20 -20 -20 -20 -20 -20 -20 -20 -20 -20 -20 -20 -20 -20 -20 -20 -20 -20
-0 4 -16 -20 -20 -20 -20 -20 -20 -20 -20 -20 -20 -20 -20 -20 -20 -20 -20 -20 -20 -20 -20 -20 -20 -20 -20 -20 -20 -20 -20 -20 -20 -20 -20 -20 -20 -20 -19 -20 -20 -20 -20 -20 -20
11 -13 -20 -20 -20 -20 -20 -20 -20 -20 -20 -20 -20 -20 -20 -20 -20 -20 -20 -20 -20 -20 -20 -20 -20 -20 -20 -20 -20 -20 -20 -20 -20 -20 -20 -20 -20 -20 -20 -20 -20 -20 -20 -20 -20
-20 -20 -20 -20 -20 -20 -20 -20 -20 -20 -20 -20 -20 -20 -20 -20 -20 -20 -20 -20 -20 -20 -20 -20 -20 -20 -20 -20 -20 -20 -20 -20 -20 -20 -20 -20 -20 -20 -20 -20 -20 -20 -20 -20 -20
-20 -20 -20 -20 -20 -20 -20 -20 -20 -20 -20 -20 -20 -20 -20 -20 -20 -20 -20 -20 -20 -20 -20 -20 -20 -20 -20 -20 -20 -20 -20 -20 -20 -20 -20 -20 -20 -20 -20 -20 -20 -20 -20 -20 -20
-20 -20 -20 -20 -20 -20 -20 -20 -20 -20 -20 -20 -20 -20 -20 -20 -20 -20 -20 -20 -20 -20 -20 -20 -20 -20 -20 -20 -20 -20 -20 -20 -20 -20 -20 -20 -20 -20 -20 -20 -20 -20 -20 -20 -20
-20 -20 -20 -20 -20 -20 -17 -20 -20 -20 -20 -20 -20 -20 -20 -20 -20 -20 -20 -20 -20 -20 -20 -20 -20 -20 -20 -20 -20 -20 -20 -20 -20 -20 -20 -20 -20 -20 -20 -20 -20 -20 -20 -20 -20
-20 -20 -20 -20 -20 -20 -20 -20 -20 -20 -20 -20 -20 -20 -20 -20 -20 -20 -20 -20 -20 -20 -20 -20 -20 -20 -20 -20 -20 -20 -20 -20 -20 -20 -20 -20 -20 -20 -20 -20 -20 -20 -20 -20 -20
-20 -3 -20 -20 -20 -18 -20 -20 -20 -20 -20 -20 -20 -20 -20 -20 -20 -20 -20 -20 -20 -20 -20 -20 -20 -20 -20 -20 -20 -20 -20 -20 -20 -20 -20 -20 -20 -20 -20 -20 -20 -20 -20 -20 -20
-0 6 -20 -20 0 -20 -20 -20 -20 -20 -20 -20 -20 -20 -20 -20 -20 -20 -20 -20 -20 -20 -20 -20 -20 -20 -20 -20 -20 -20 -20 -20 -20 -20 -20 -20 -20 -20 -20 -20 -20 -20 -20 -20 -20
5 6 -20 -20 -20 -20 -20 -20 -20 -20 -20 -20 -20 -20 -20 -20 -20 -20 -20 -20 -20 -20 -20 -20 -20 -20 -20 -20 -20 -20 -20 -20 -20 -20 -20 -20 -20 -20 -20 -20 -20 -20 -20 -20 -20
-19 9 -20 -20 -20 -20 -20 -20 -20 -20 -20 -20 -20 -20 -20 -20 -20 -20 -20 -20 -20 -20 -20 -20 -20 -20 -20 -20 -20 -20 -20 -20 -20 -20 -20 -20 -20 -20 -20 -20 -20 -20 -20 -20 -20
9 1 -17 -20 -20 -20 -20 -20 -20 -20 -20 -20 -20 -20 -20 -20 -20 -20 -20 -20 -20 -20 -20 -20 -20 -20 -20 -20 -20 -20 -20 -20 -20 -20 -20 -20 -20 -20 -20 -20 -20 -20 -20 -20 -20
-7 -14 -20 -20 -20 -20 -20 -20 -20 -20 -20 -20 -20 -20 -20 -20 -20 -20 -20 -20 -20 -20 -20 -20 -20 -20 -20 -20 -20 -20 -20 -20 -20 -20 -20 -20 -20 -20 -20 -20 -20 -20 -20 -20 -20
-1 -20 -20 -20 -20 -20 -20 -20 -20 -20 -20 -20 -20 -20 -20 -20 -20 -20 -20 -20 -20 -20 -20 -20 -20 -20 -20 -20 -20 -20 -20 -20 -20 -20 -20 -20 -20 -20 -20 -20 -20 -20 -20 -20 -20
-20 -20 -20 -20 -20 -20 -20 -20 -20 -20 -20 -20 -20 -20 -20 -20 -20 -20 -20 -20 -20 -20 -20 -20 -20 -20 -20 -20 -20 -20 -20 -20 -20 -20 -20 -20 -20 -20 -20 -20 -20 -20 -20 -20 -20
-20 -20 -20 -20 -20 -20 -20 -20 -20 -20 -20 -20 -20 -20 -20 -20 -20 -20 -20 -20 -20 -20 -20 -20 -20 -20 -20 -20 -20 -20 -20 -20 -20 -20 -20 -20 -20 -20 -20 -20 -20 -20 -20 -20 -20
-20 -20 -20 -20 -20 -20 -20 -20 -20 -20 -20 -20 -20 -20 -20 -20 -20 -20 -20 -20 -20 -20 -20 -20 -20 -20 -20 -20 -20 -20 -20 -20 -20 -20 -20 -20 -20 -20 -20 -20 -20 -20 -20 -20 -20
-20 -20 -20 -20 -20 -20 -20 -20 -20 -20 -20 -20 -20 -20 -20 -20 -20 -20 -20 -20 -20 -20 -20 -20 -20 -20 -20 -20 -20 -20 -20 -20 -20 -20 -20 -20 -20 -20 -20 -20 -20 -20 -20 -20 -20
-20 -20 -20 -20 -20 -20 -20 -20 -20 -20 -20 -20 -20 -20 -20 -20 -20 -20 -20 -20 -20 -20 -20 -20 -20 -20 -20 -20 -10 -20 -20 -20 -20 -20 -20 -20 -20 -20 -20 -20 -20 -20 -20 -20 -20
-20 -20 -20 -20 -20 -20 -20 -20 -20 -20 -20 -20 -20 -20 -20 -20 -20 -20 -20 -20 -20 -20 -20 -20 -20 -20 -20 -20 -20 -20 -20 -20 -20 -20 -20 -20 -20 -20 -20 -20 -20 -20 -20 -20 -20
-20 -20 -20 -20 -20 -20 -20 -20 -20 -20 -20 -20 -20 -20 -20 -20 -20 -20 -20 -20 -20 -20 -20 -20 -20 -20 -20 -20 -20 -20 -20 -20 -20 -20 -20 -20 -20 -20 -20 -20 -20 -20 -20 -20 -20
-20 -20 -20 -20 -20 -20 -20 -20 -20 -20 -20 -20 -20 -20 -20 -20 -20 -20 -20 -20 -20 -20 -20 -20 -20 -20 -20 -20 -20 -20 -20 -20 -20 -20 -20 -20 -20 -20 -20 -20 -20 -20 -20 -20 -20
Wind_Speed
12 12 13 13 13 14 14 14 15 15 15 15 16 16 15 15 18 6 4 6 7 18 10 9 8 6 7 4 5 5 4 6 9 8 8 4 3 3 1 8 1 5 3 19 22
13 13 13 13 14 15 15 15 15 15 15 15 15 15 14 13 7 7 7 10 22 16 14 11 7 6 4 2 2 4 4 7 7 6 8 5 1 6 4 5 8 8 13 22 23
14 14 14 15 15 15 15 16 16 15 15 16 15 16 14 15 7 7 5 11 21 17 7 5 4 6 5 2 2 2 6 8 5 6 8 6 1 2 2 4 5 12 18 21 22
14 15 15 15 16 16 15 15 15 15 15 15 16 16 16 7 3 7 1 14 17 14 8 6 5 3 4 5 3 5 1 8 7 4 5 4 2 1 4 3 4 13 19 21 22
13 14 15 15 16 17 16 15 15 15 15 15 15 15 9 7 3 6 6 15 17 11 11 8 7 5 4 5 6 6 9 10 9 6 2 2 0 2 2 1 5 17 20 21 20
13 14 15 15 16 17 17 16 16 16 15 14 13 15 7 8 4 4 12 17 13 11 9 8 4 5 6 4 5 12 11 7 4 3 2 5 0 4 4 6 12 16 19 20 19
13 13 15 15 16 17 18 18 18 16 14 11 9 6 7 5 4 6 10 14 11 11 7 5 6 8 7 5 4 10 9 3 11 5 4 8 5 5 10 11 14 15 16 18 18
13 14 14 15 16 17 18 19 18 16 11 8 6 6 3 3 1 4 6 10 7 9 6 5 5 9 7 4 7 6 7 3 8 8 4 7 3 6 11 13 15 16 16 17 18
13 13 15 15 16 16 18 17 15 7 3 5 7 6 4 6 7 7 8 5 8 7 4 5 6 7 6 10 9 6 4 5 2 5 7 5 11 5 9 13 12 15 17 18 17
14 14 15 15 14 15 17 12 2 7 6 5 3 6 5 4 4 4 7 6 8 8 6 8 7 10 10 11 10 2 8 3 6 9 9 11 12 8 10 13 13 15 17 18 20
15 14 15 14 13 13 10 5 7 7 7 6 4 4 4 1 4 8 9 11 8 10 12 11 11 13 16 13 10 9 10 10 7 5 12 9 13 10 2 14 13 16 18 19 22
15 15 15 15 16 12 7 5 6 7 3 4 7 7 6 3 5 10 9 12 11 13 7 8 15 16 7 9 12 16 14 15 6 6 9 13 14 7 3 5 11 15 18 20 20
14 15 16 17 17 6 4 4 4 3 7 5 2 3 2 7 3 12 15 13 12 15 12 16 2 5 10 14 14 17 18 15 10 10 10 9 15 6 4 3 6 10 13 19 20
16 15 16 18 5 1 2 1 6 5 7 7 6 5 7 5 6 2 10 9 7 11 14 11 15 7 11 13 15 17 11 9 10 10 9 1 11 7 3 7 8 5 10 15 20
15 15 12 8 7 5 6 6 3 6 7 5 7 5 5 7 11 8 6 8 11 11 8 11 9 12 18 17 8 14 6 11 10 12 11 14 9 10 7 12 4 6 4 9 15
13 13 10 6 4 3 5 2 6 8 4 7 5 9 12 7 6 7 10 6 3 5 10 13 2 7 10 9 14 9 9 12 11 12 13 18 7 11 9 9 10 11 6 3 11
14 9 7 4 3 5 6 6 8 7 4 8 7 9 12 10 9 10 13 14 10 11 13 13 15 14 8 9 9 10 13 10 12 13 12 3 6 11 11 14 10 14 7 2 7
11 7 8 5 5 6 6 7 7 3 1 5 3 8 9 10 9 9 7 11 10 9 1 6 9 13 14 19 13 15 17 12 11 11 11 7 8 9 9 9 11 5 4 3 5
8 5 4 2 3 4 8 8 3 3 1 3 9 11 8 8 4 10 10 6 5 13 8 4 5 5 5 8 13 15 12 18 18 9 9 9 7 9 15 6 4 6 8 6 1
4 5 4 2 2 7 8 1 3 1 2 5 6 6 8 10 9 9 9 5 6 4 11 3 8 9 5 7 7 14 10 10 11 15 15 9 7 9 6 6 4 6 8 9 7
6 4 5 3 5 7 6 4 2 2 2 4 3 5 3 6 5 6 7 8 1 5 6 9 8 7 7 12 10 10 13 11 12 7 11 12 10 2 3 4 8 9 9 10 10
4 3 5 4 6 2 5 1 1 1 2 3 4 2 4 3 6 5 6 3 2 2 3 2 7 9 10 7 3 10 10 14 11 16 11 12 8 8 4 4 6 8 9 10 9
1 4 4 5 3 5 5 4 1 1 2 2 5 3 1 3 4 3 3 5 2 4 4 2 7 9 12 11 10 10 14 12 14 12 13 10 11 8 4 1 6 9 10 10 9
4 5 4 3 1 3 4 4 6 3 1 1 1 4 5 6 3 1 6 5 1 1 2 3 12 11 13 14 8 5 9 10 17 14 14 13 17 10 5 2 5 8 11 12 11
3 4 5 4 5 2 3 1 3 4 1 1 4 1 4 6 6 7 4 5 8 7 4 8 12 8 13 8 9 11 11 9 14 17 16 10 16 12 2 5 5 6 9 10 12
3 2 3 2 3 5 4 5 4 2 3 5 2 0 2 6 6 4 4 4 7 2 10 9 11 9 13 15 10 14 13 12 14 15 14 15 19 10 5 5 6 8 10 9 10
2 1 5 5 5 6 3 3 1 1 3 5 3 6 6 3 5 6 8 10 11 10 12 11 12 12 14 14 13 18 17 19 18 18 16 17 17 13 6 3 8 11 11 9 10
Wind_Direction
346 338 338 337 335 333 333 333 333 334 331 334 334 331 325 324 301 224 248 82 176 176 194 160 197 198 227 292 274 276 272 46 38 16 71 142 117 107 131 139 187 152 134 128 152
339 338 335 333 332 330 331 330 331 331 330 332 331 325 320 324 276 247 74 159 148 174 180 180 177 204 253 280 234 305 335 6 344 347 5 93 252 127 178 154 130 122 103 133 153
338 331 333 328 329 329 328 328 329 329 329 328 328 321 315 307 254 91 64 162 160 191 189 230 241 248 293 296 58 21 7 341 333 346 340 355 215 196 242 178 168 164 146 149 157
336 332 329 328 327 327 325 325 325 326 327 325 325 319 313 259 189 82 79 164 168 194 193 203 208 238 301 342 42 292 326 322 317 7 323 2 25 235 261 52 29 149 159 159 171
333 330 326 326 325 322 321 323 323 322 323 322 320 318 287 220 80 53 165 163 177 213 204 219 235 281 340 329 325 286 340 328 315 287 302 189 34 319 284 213 138 141 160 171 177
331 328 326 323 322 322 321 322 320 318 316 313 313 308 260 230 44 42 139 167 189 206 217 239 326 344 299 323 309 329 319 353 14 56 106 300 32 239 156 152 141 157 170 176 179
329 327 324 321 321 321 319 319 316 312 305 300 299 294 257 21 92 91 153 179 203 216 248 255 299 280 343 290 324 302 297 128 41 22 27 318 218 200 134 163 160 170 172 179 182
327 325 322 323 323 321 316 315 310 305 289 267 263 258 293 108 198 243 175 183 204 220 270 308 288 280 265 319 247 285 244 345 56 16 54 302 65 76 160 174 173 175 177 184 190
323 323 324 325 323 318 316 312 303 304 209 193 231 273 135 138 214 210 203 199 182 194 226 294 250 272 253 253 262 218 335 351 93 38 347 330 318 68 178 191 183 187 183 187 192
324 327 326 323 319 318 313 294 204 194 191 216 263 239 189 140 138 160 190 218 180 177 191 215 228 238 229 247 247 234 282 307 334 342 323 304 296 309 191 218 199 194 196 191 195
325 326 321 320 322 324 299 193 203 174 213 318 65 342 123 355 193 196 177 192 197 207 216 205 228 226 243 241 293 288 278 284 308 336 319 318 311 312 271 205 214 195 204 200 202
326 324 324 325 328 320 264 267 37 358 248 221 257 267 257 293 194 176 191 200 202 219 206 209 234 250 278 292 260 267 271 271 308 289 311 318 309 315 334 229 220 215 199 207 202
326 328 328 324 321 262 293 66 350 273 254 139 191 241 170 209 213 164 200 204 212 223 216 249 282 311 236 243 251 256 261 273 286 304 274 288 281 257 126 238 237 233 222 201 205
329 329 328 323 284 78 184 33 307 216 236 122 160 126 173 235 179 111 211 208 209 243 232 252 259 225 233 246 252 262 255 255 267 268 269 4 285 260 300 288 185 245 218 222 204
327 326 322 327 327 223 62 323 182 222 206 126 115 93 159 236 121 157 170 198 224 196 219 229 214 226 240 248 232 265 268 249 271 262 264 241 255 273 268 279 269 75 340 229 213
323 318 318 206 227 354 314 284 224 228 129 130 127 164 180 186 165 132 180 223 342 216 225 268 152 254 260 266 244 266 232 230 235 251 247 254 264 279 280 314 324 320 10 285 211
317 305 265 302 46 336 293 220 224 271 152 147 137 175 194 168 159 170 180 192 203 209 215 216 228 227 232 238 189 222 241 240 217 221 242 131 247 265 310 290 333 317 346 209 206
317 291 180 280 307 308 232 228 244 95 117 135 173 177 188 162 211 200 211 214 213 260 251 247 190 202 204 231 239 209 244 251 244 249 245 135 249 250 310 312 303 303 30 341 197
308 188 197 100 267 245 240 224 94 146 82 172 165 184 156 171 244 209 223 229 205 212 246 210 208 145 205 216 238 221 239 252 271 245 276 274 243 258 255 260 13 9 11 19 87
237 195 88 95 234 245 241 32 146 26 305 212 215 261 178 170 200 218 186 133 137 229 260 301 264 183 112 194 216 258 307 210 227 261 248 251 236 267 280 6 316 334 11 9 5
231 198 95 226 262 228 230 89 140 102 291 263 176 174 185 168 249 188 174 127 183 138 240 270 250 152 181 208 209 184 235 235 291 270 268 257 248 48 81 335 325 349 0 351 351
267 181 123 263 216 251 183 76 29 71 160 212 275 283 213 175 206 207 190 32 58 315 234 220 288 260 251 95 301 280 271 251 228 227 236 280 289 103 74 359 354 5 15 357 339
234 97 159 266 222 169 133 150 282 215 93 183 192 269 162 197 230 248 195 95 8 274 335 155 249 276 232 183 196 230 224 245 255 273 275 248 237 144 121 76 30 18 13 8 346
242 174 149 208 331 288 172 138 154 121 122 313 278 212 193 209 203 217 218 142 175 349 338 229 267 278 293 347 351 238 229 235 252 240 236 219 260 174 183 340 9 7 10 7 9
332 69 4 163 168 185 256 148 192 161 148 212 148 184 243 238 233 234 235 242 191 142 223 266 269 285 286 284 284 286 273 217 234 253 274 268 233 253 356 321 353 343 3 12 18
329 282 175 126 153 240 149 180 244 165 275 152 258 136 266 262 298 298 291 243 286 199 255 245 275 279 272 275 256 265 258 254 253 254 260 266 279 276 290 286 314 351 351 354 7
69 139 284 141 203 239 207 230 214 283 192 287 329 307 262 16 344 313 294 291 279 276 285 290 283 273 262 274 270 258 249 248 246 254 249 251 257 268 258 288 336 328 324 337 344